Change the Weather History Date:

Wednesday, November 30, 2011

  Actual Average Record
Temperature  
Mean Temperature 38 °F -  
Max Temperature 44 °F 35 °F 48 °F (2007)
Min Temperature 32 °F 28 °F 19 °F (2000)
Degree Days  
Heating Degree Days 27    
Moisture  
Dew Point 28 °F    
Average Humidity 66    
Maximum Humidity 81    
Minimum Humidity 57    
Precipitation  
Precipitation 0.00 in - - ()
Sea Level Pressure  
Sea Level Pressure 29.48 in    
Wind  
Wind Speed 14 mph (SSW)    
Max Wind Speed 32 mph    
Max Gust Speed 47 mph    
Visibility 10 miles    
Events      
Averages and records for this station are not official NWS values.
T = Trace of Precipitation, MM = Missing Value Source: NWS Daily Summary

Daily Weather History Graph

Daily Weather History Graph

Search for Another Location

Airport or City:

Trip Planner

Search our weather history database for the weather conditions in past years. The results will help you decide how hot, cold, wet, or windy it might be!

Date:

Astronomy

Nov. 30, 2011 Rise Set
Actual Time 9:40 AM AKST 5:03 PM AKST
Civil Twilight 8:54 AM AKST 5:49 PM AKST
Nautical Twilight 8:06 AM AKST 6:37 PM AKST
Astronomical Twilight 7:21 AM AKST 7:22 PM AKST
Moon 1:26 PM AKST 11:55 PM AKST
Length of Visible Light 8h 54m
Length of Day
7h 22m
Waxing Crescent, 35% of the Moon is Illuminated
Nov 30
Waxing Crescent
Dec 2
First Quarter
Dec 10
Full
Dec 17
Last Quarter
Dec 24
New

Hourly Weather History & Observations

Time (AKST) Temp. Windchill Dew Point Humidity Pressure Visibility Wind Dir Wind Speed Gust Speed Precip Events Conditions
12:16 AM 42.8 °F 34.5 °F 30.2 °F 61% 29.32 in 10.0 mi SE 18.4 mph 24.2 mph N/A   Overcast
12:36 AM 42.8 °F 35.1 °F 30.2 °F 61% 29.31 in 10.0 mi East 16.1 mph 31.1 mph N/A   Overcast
12:56 AM 42.8 °F 35.1 °F 30.2 °F 61% 29.32 in 10.0 mi South 16.1 mph 32.2 mph N/A   Overcast
1:16 AM 42.8 °F 38.0 °F 32.0 °F 66% 29.34 in 6.0 mi SSE 8.1 mph - N/A   Overcast
1:36 AM 42.8 °F 35.1 °F 30.2 °F 61% 29.32 in 9.0 mi ESE 16.1 mph 46.0 mph N/A   Overcast
1:56 AM 42.8 °F 34.3 °F 30.2 °F 61% 29.32 in 9.0 mi East 19.6 mph 32.2 mph N/A   Mostly Cloudy
2:16 AM 41.0 °F 33.5 °F 32.0 °F 70% 29.34 in 9.0 mi ESE 13.8 mph 26.5 mph N/A   Overcast
2:36 AM 42.8 °F 35.4 °F 30.2 °F 61% 29.33 in 10.0 mi ESE 15.0 mph 47.2 mph N/A   Mostly Cloudy
2:56 AM 42.8 °F 31.9 °F 30.2 °F 61% 29.33 in 7.0 mi SSE 32.2 mph 42.6 mph N/A   Mostly Cloudy
3:36 AM 41.0 °F 33.5 °F 32.0 °F 70% 29.33 in 7.0 mi ESE 13.8 mph 17.3 mph N/A   Overcast
3:56 AM 42.8 °F 34.5 °F 32.0 °F 66% 29.33 in 8.0 mi ESE 18.4 mph 34.5 mph N/A   Overcast
4:16 AM 42.8 °F 35.1 °F 32.0 °F 66% 29.33 in 7.0 mi SE 16.1 mph 38.0 mph N/A   Mostly Cloudy
4:36 AM 42.8 °F 39.3 °F 32.0 °F 66% 29.32 in 5.0 mi ESE 5.8 mph 42.6 mph N/A   Overcast
4:56 AM 42.8 °F 34.0 °F 30.2 °F 61% 29.32 in 6.0 mi SSE 20.7 mph 36.8 mph N/A   Overcast
5:16 AM 42.8 °F 34.5 °F 32.0 °F 66% 29.31 in 6.0 mi SE 18.4 mph 40.3 mph N/A   Overcast
7:36 AM 44.6 °F 39.7 °F 32.0 °F 61% 29.30 in 10.0 mi ESE 9.2 mph 18.4 mph N/A   Overcast
7:56 AM 42.8 °F 38.0 °F 32.0 °F 66% 29.31 in 10.0 mi North 8.1 mph 17.3 mph N/A   Overcast
8:16 AM 42.8 °F 38.0 °F 33.8 °F 70% 29.32 in 10.0 mi North 8.1 mph 23.0 mph N/A   Overcast
8:36 AM 42.8 °F 35.8 °F 32.0 °F 66% 29.31 in 10.0 mi SSW 13.8 mph 19.6 mph N/A   Overcast
8:56 AM 44.6 °F 40.2 °F 30.2 °F 57% 29.32 in 10.0 mi NNW 8.1 mph 16.1 mph N/A   Overcast
9:16 AM 42.8 °F 38.0 °F 32.0 °F 66% 29.33 in 10.0 mi NW 8.1 mph 16.1 mph N/A   Overcast
9:36 AM 42.8 °F 35.8 °F 33.8 °F 70% 29.34 in 10.0 mi NNW 13.8 mph - N/A   Overcast
9:56 AM 42.8 °F 40.1 °F 32.0 °F 66% 29.35 in 10.0 mi SW 4.6 mph - N/A   Overcast
10:16 AM 42.8 °F 37.5 °F 33.8 °F 70% 29.35 in 10.0 mi South 9.2 mph - N/A   Overcast
10:36 AM 42.8 °F 36.2 °F 33.8 °F 70% 29.36 in 10.0 mi South 12.7 mph 19.6 mph N/A   Overcast
10:56 AM 42.8 °F 34.8 °F 32.0 °F 66% 29.37 in 10.0 mi SSE 17.3 mph 20.7 mph N/A   Overcast
11:16 AM 42.8 °F 34.3 °F 32.0 °F 66% 29.38 in 10.0 mi SSE 19.6 mph 32.2 mph N/A   Mostly Cloudy
11:36 AM 44.6 °F 38.8 °F 32.0 °F 61% 29.39 in 10.0 mi SSW 11.5 mph 17.3 mph N/A   Partly Cloudy
11:56 AM 42.8 °F 39.3 °F 33.8 °F 70% 29.40 in 10.0 mi East 5.8 mph - N/A   Mostly Cloudy
12:16 PM 42.8 °F - 33.8 °F 70% 29.41 in 10.0 mi Calm Calm - N/A   Overcast
12:36 PM 42.8 °F 38.0 °F 33.8 °F 70% 29.41 in 10.0 mi North 8.1 mph - N/A   Overcast
12:56 PM 39.2 °F 31.2 °F 33.8 °F 81% 29.42 in 10.0 mi West 13.8 mph 17.3 mph N/A   Overcast
1:16 PM 39.2 °F 32.0 °F 32.0 °F 75% 29.43 in 9.0 mi West 11.5 mph - N/A   Overcast
1:36 PM 37.4 °F 29.8 °F 30.2 °F 75% 29.45 in 10.0 mi WSW 11.5 mph 17.3 mph N/A   Overcast
1:56 PM 37.4 °F 30.8 °F 28.4 °F 70% 29.46 in 10.0 mi West 9.2 mph 19.6 mph N/A   Overcast
2:16 PM 37.4 °F 32.1 °F 28.4 °F 70% 29.47 in 10.0 mi SW 6.9 mph - N/A   Overcast
2:36 PM 37.4 °F 31.4 °F 28.4 °F 70% 29.49 in 10.0 mi West 8.1 mph - N/A   Overcast
2:56 PM 37.4 °F 31.4 °F 28.4 °F 70% 29.49 in 10.0 mi WSW 8.1 mph - N/A   Mostly Cloudy
3:16 PM 37.4 °F 30.3 °F 26.6 °F 65% 29.51 in 10.0 mi WSW 10.4 mph 19.6 mph N/A   Scattered Clouds
3:36 PM 37.4 °F 29.3 °F 26.6 °F 65% 29.52 in 10.0 mi West 12.7 mph - N/A   Mostly Cloudy
3:56 PM 37.4 °F 31.4 °F 26.6 °F 65% 29.53 in 10.0 mi WSW 8.1 mph 16.1 mph N/A   Overcast
4:16 PM 35.6 °F 26.6 °F 24.8 °F 65% 29.54 in 10.0 mi WSW 13.8 mph 20.7 mph N/A   Overcast
4:36 PM 35.6 °F 26.6 °F 24.8 °F 65% 29.55 in 10.0 mi SW 13.8 mph 25.3 mph N/A   Overcast
4:56 PM 35.6 °F 26.2 °F 24.8 °F 65% 29.57 in 10.0 mi SW 15.0 mph 24.2 mph N/A   Mostly Cloudy
5:16 PM 35.6 °F 24.5 °F 24.8 °F 65% 29.59 in 10.0 mi WSW 20.7 mph 29.9 mph N/A   Scattered Clouds
5:36 PM 35.6 °F 24.8 °F 24.8 °F 65% 29.61 in 10.0 mi SW 19.6 mph 28.8 mph N/A   Mostly Cloudy
5:56 PM 33.8 °F 23.2 °F 24.8 °F 70% 29.62 in 10.0 mi SW 17.3 mph 26.5 mph N/A   Mostly Cloudy
6:16 PM 33.8 °F 23.2 °F 24.8 °F 70% 29.63 in 10.0 mi SW 17.3 mph 29.9 mph N/A   Mostly Cloudy
6:36 PM 33.8 °F 21.3 °F 23.0 °F 65% 29.64 in 10.0 mi SW 24.2 mph 32.2 mph N/A   Mostly Cloudy
6:56 PM 33.8 °F 22.2 °F 23.0 °F 65% 29.65 in 10.0 mi SW 20.7 mph 29.9 mph N/A   Mostly Cloudy
7:16 PM 33.8 °F 23.2 °F 23.0 °F 65% 29.67 in 10.0 mi WSW 17.3 mph 27.6 mph N/A   Scattered Clouds
7:36 PM 33.8 °F 22.2 °F 23.0 °F 65% 29.68 in 10.0 mi SW 20.7 mph 36.8 mph N/A   Scattered Clouds
7:56 PM 33.8 °F 22.8 °F 21.2 °F 60% 29.69 in 10.0 mi SW 18.4 mph 34.5 mph N/A   Partly Cloudy
8:16 PM 33.8 °F 23.2 °F 21.2 °F 60% 29.70 in 10.0 mi WSW 17.3 mph 24.2 mph N/A   Scattered Clouds
8:36 PM 33.8 °F 24.3 °F 23.0 °F 65% 29.72 in 10.0 mi WSW 13.8 mph 25.3 mph N/A   Mostly Cloudy
8:56 PM 33.8 °F 22.5 °F 23.0 °F 65% 29.73 in 10.0 mi WSW 19.6 mph 27.6 mph N/A   Overcast
9:16 PM 33.8 °F 23.2 °F 23.0 °F 65% 29.75 in 10.0 mi WSW 17.3 mph 23.0 mph N/A   Overcast
9:36 PM 33.8 °F 25.3 °F 23.0 °F 65% 29.77 in 10.0 mi SW 11.5 mph - N/A   Overcast
10:16 PM 33.8 °F 27.0 °F 21.2 °F 60% 29.79 in 10.0 mi West 8.1 mph - N/A   Overcast
10:36 PM 33.8 °F 30.8 °F 21.2 °F 60% 29.81 in 10.0 mi WSW 3.5 mph - N/A   Overcast
10:56 PM 33.8 °F 30.8 °F 21.2 °F 60% 29.81 in 10.0 mi South 3.5 mph - N/A   Partly Cloudy
11:16 PM 32.0 °F 27.5 °F 23.0 °F 69% 29.82 in 10.0 mi SE 4.6 mph - N/A   Clear
11:36 PM 32.0 °F - 23.0 °F 69% 29.84 in 10.0 mi Calm Calm - N/A   Clear
11:56 PM 32.0 °F - 21.2 °F 64% 29.85 in 10.0 mi Calm Calm - N/A   Clear